Change the Weather History Date:

Wednesday, March 6, 2013

  Actual Average Record
Temperature  
Mean Temperature 54 °F 55 °F  
Max Temperature 59 °F 65 °F 82 °F (1979)
Min Temperature 48 °F 45 °F 34 °F (1964)
Degree Days  
Heating Degree Days 11 10  
Month to date heating degree days 34 61  
Since 1 July heating degree days 1174 1397  
Cooling Degree Days 0 0  
Month to date cooling degree days 4 0  
Year to date cooling degree days 24 9  
Growing Degree Days 2 (Base 50)    
Moisture  
Dew Point 46 °F    
Average Humidity 72    
Maximum Humidity 86    
Minimum Humidity 57    
Precipitation  
Precipitation T in 0.15 in 1.50 in (1995)
Month to date precipitation T 1.06  
Year to date precipitation 1.20 8.24  
Since 1 July precipitation 3.91 12.48  
Sea Level Pressure  
Sea Level Pressure 30.10 in    
Wind  
Wind Speed 4 mph (South)    
Max Wind Speed 12 mph    
Max Gust Speed 14 mph    
Visibility 10 miles    
Events      
T = Trace of Precipitation, MM = Missing Value Source: NWS Daily Summary

Daily Weather History Graph

Daily Weather History Graph

Search for Another Location

Airport or City:

Trip Planner

Search our weather history database for the weather conditions in past years. The results will help you decide how hot, cold, wet, or windy it might be!

Date:

Astronomy

Mar. 06, 2013 Rise Set
Actual Time 6:18 AM PST 5:57 PM PST
Civil Twilight 5:53 AM PST 6:22 PM PST
Nautical Twilight 5:24 AM PST 6:51 PM PST
Astronomical Twilight 4:55 AM PST 7:20 PM PST
Moon 2:21 AM PST (3/6) 12:54 PM PST (3/6)
Length of Visible Light 12h 28m
Length of Day
11h 38m
Waning Crescent, 29% of the Moon is Illuminated
Mar 6
Waning Crescent
Mar 11
New
Mar 19
First Quarter
Mar 27
Full
Apr 2
Last Quarter

Hourly Weather History & Observations

Time (PST) Temp. Dew Point Humidity Pressure Visibility Wind Dir Wind Speed Gust Speed Precip Events Conditions
12:55 AM 54.0 °F 45.0 °F 72% 30.15 in 10.0 mi Calm Calm - N/A   Overcast
1:55 AM 54.0 °F 44.1 °F 69% 30.16 in 10.0 mi WSW 3.5 mph - N/A   Overcast
2:02 AM 53.6 °F 44.6 °F 72% 30.13 in 10.0 mi West 3.5 mph - N/A   Overcast
2:55 AM 53.1 °F 46.0 °F 77% 30.14 in 10.0 mi SSE 3.5 mph - 0.00 in   Overcast
3:55 AM 52.0 °F 46.0 °F 80% 30.14 in 10.0 mi SE 4.6 mph - N/A   Mostly Cloudy
4:55 AM 48.9 °F 44.1 °F 83% 30.14 in 10.0 mi ENE 4.6 mph - N/A   Partly Cloudy
5:55 AM 50.0 °F 43.0 °F 77% 30.14 in 10.0 mi NE 5.8 mph - N/A   Mostly Cloudy
6:55 AM 51.1 °F 44.1 °F 77% 30.16 in 10.0 mi NE 5.8 mph - N/A   Overcast
7:55 AM 54.0 °F 44.1 °F 69% 30.17 in 10.0 mi ENE 6.9 mph - N/A   Overcast
8:55 AM 57.0 °F 43.0 °F 59% 30.17 in 10.0 mi NE 5.8 mph - N/A   Overcast
9:55 AM 57.9 °F 42.1 °F 56% 30.17 in 10.0 mi Variable 3.5 mph - N/A   Overcast
10:55 AM 57.9 °F 44.1 °F 60% 30.17 in 10.0 mi SSW 5.8 mph - N/A   Overcast
11:55 AM 57.9 °F 43.0 °F 58% 30.17 in 10.0 mi WSW 5.8 mph - N/A   Overcast
12:55 PM 57.9 °F 45.0 °F 62% 30.14 in 10.0 mi SSW 4.6 mph - N/A   Overcast
1:17 PM 57.2 °F 44.6 °F 63% 30.10 in 10.0 mi Calm Calm - N/A   Overcast
2:55 PM 57.0 °F 46.9 °F 69% 30.10 in 10.0 mi SSW 6.9 mph - N/A   Overcast
3:55 PM 55.0 °F 48.0 °F 77% 30.09 in 10.0 mi SSW 9.2 mph - N/A   Overcast
4:55 PM 55.0 °F 46.9 °F 74% 30.09 in 10.0 mi SSW 6.9 mph - N/A   Overcast
5:55 PM 54.0 °F 46.9 °F 77% 30.08 in 10.0 mi Calm Calm - N/A   Overcast
6:55 PM 54.0 °F 48.0 °F 80% 30.07 in 10.0 mi Calm Calm - N/A   Overcast
7:55 PM 54.0 °F 48.0 °F 80% 30.07 in 10.0 mi Calm Calm - N/A   Overcast
8:55 PM 54.0 °F 48.9 °F 83% 30.06 in 10.0 mi Calm Calm - N/A   Overcast
9:41 PM 53.6 °F 48.2 °F 82% 30.03 in 10.0 mi Calm Calm - N/A   Overcast
9:55 PM 54.0 °F 48.9 °F 83% 30.06 in 10.0 mi Calm Calm - N/A   Overcast
10:13 PM 53.6 °F 48.2 °F 82% 30.03 in 10.0 mi Calm Calm - N/A   Overcast
10:55 PM 54.0 °F 48.9 °F 83% 30.05 in 10.0 mi Calm Calm - N/A   Overcast
11:07 PM 53.6 °F 48.2 °F 82% 30.02 in 10.0 mi Calm Calm - N/A   Overcast
11:15 PM 53.6 °F 48.2 °F 82% 30.02 in 10.0 mi Calm Calm - N/A   Overcast
11:26 PM 53.6 °F 48.2 °F 82% 30.01 in 10.0 mi Calm Calm - N/A   Overcast
11:55 PM 54.0 °F 50.0 °F 86% 30.04 in 5.0 mi Calm Calm - N/A   Overcast